This is the latest recevied weather packets stored in our database for station/object SP1BMW-13. If no packets are shown the sender has not sent any weather packets the latest 10 day(s).
| Time | Temp. | Humidity | Pressure | Rain* | Wind** | Luminosity | Snow |
|---|---|---|---|---|---|---|---|
| 1778080012 | 10.56° C | 88% | 1006.5 hPa | 0 mm | 1.79 m/s, 337° | 113 W/m² | - |
| 1778079951 | 10.56° C | 89% | 1006.6 hPa | 0 mm | 1.79 m/s, 315° | 115 W/m² | - |
| 1778079892 | 10.56° C | 89% | 1006.6 hPa | 0 mm | 0.45 m/s, 339° | 136 W/m² | - |
| 1778079832 | 10.56° C | 89% | 1006.4 hPa | 0 mm | 0.45 m/s, 339° | 136 W/m² | - |
| 1778079773 | 10.56° C | 90% | 1006.6 hPa | 0 mm | 0.45 m/s, 49° | 159 W/m² | - |
| 1778079712 | 10.56° C | 90% | 1006.5 hPa | 0 mm | 0.45 m/s, 49° | 159 W/m² | - |
| 1778079652 | 10.56° C | 89% | 1006.5 hPa | 0 mm | 0.45 m/s, 36° | 160 W/m² | - |
| 1778079593 | 10.56° C | 90% | 1006.5 hPa | 0 mm | 0 m/s | 151 W/m² | - |
| 1778079531 | 10.56° C | 89% | 1006.5 hPa | 0 mm | 0.89 m/s, 11° | 151 W/m² | - |
| 1778079472 | 10.56° C | 89% | 1006.4 hPa | 0 mm | 0.89 m/s, 7° | 166 W/m² | - |
| 1778079412 | 10.56° C | 89% | 1006.4 hPa | 0 mm | 0.89 m/s, 7° | 166 W/m² | - |
| 1778079352 | 10.56° C | 89% | 1006.6 hPa | 0 mm | 0.89 m/s, 7° | 166 W/m² | - |
| 1778079292 | 10.56° C | 89% | 1006.5 hPa | 0 mm | 0.89 m/s, 7° | 166 W/m² | - |
| 1778079232 | 10.56° C | 89% | 1006.5 hPa | 0 mm | 0.89 m/s, 7° | 166 W/m² | - |
| 1778079172 | 10.56° C | 89% | 1006.5 hPa | 0 mm | 0.89 m/s, 25° | 162 W/m² | - |
| 1778079111 | 10.56° C | 88% | 1006.6 hPa | 0 mm | 0.89 m/s, 321° | 105 W/m² | - |
| 1778079051 | 10.56° C | 88% | 1006.5 hPa | 0 mm | 0.89 m/s, 321° | 105 W/m² | - |
| 1778078992 | 10.56° C | 89% | 1006.7 hPa | 0 mm | 1.79 m/s, 305° | 97 W/m² | - |
| 1778078932 | 10.56° C | 89% | 1006.5 hPa | 0 mm | 1.34 m/s, 29° | 103 W/m² | - |
| 1778078872 | 10.56° C | 89% | 1006.5 hPa | 0 mm | 1.34 m/s, 29° | 103 W/m² | - |
| 1778078814 | 10.56° C | 90% | 1006.6 hPa | 0 mm | 0.45 m/s, 344° | 117 W/m² | - |
| 1778078751 | 10.56° C | 89% | 1006.5 hPa | 0 mm | 0.45 m/s, 14° | 113 W/m² | - |
| 1778078692 | 10.56° C | 89% | 1006.5 hPa | 0 mm | 0.89 m/s, 34° | 112 W/m² | - |
| 1778078632 | 10.56° C | 89% | 1006.6 hPa | 0 mm | 0.89 m/s, 34° | 112 W/m² | - |
| 1778078571 | 10.56° C | 89% | 1006.5 hPa | 0 mm | 0.89 m/s, 41° | 115 W/m² | - |
* Rain latest hour (hover to see other rain measurements)
** Current wind speed in m/s (hover to see current wind gust speed)